When you browse on this site, cookies collect data to enhance your experience and personalize the content and advertising you see.
Visit our Privacy Policy to learn more. By continuing to use the site, you agree to this use of cookies and data.
  • In Portugal
  • List of Countries
  • For 7 days
  • Water Temperature
  • Satellite Maps
  • Weather Map
  • Weather Widgets
  • user-avatar
    Login

    Hourly Weather Baraki Barak

    Today, 24 May, Friday

    Time Temperature Precipitation Wind Pressure Humidity
    00:00 +14°C° 0.4 mm 3 mps 596 mmHg 62%
    01:00 +15°C° 0.4 mm 2 mps 596 mmHg 64%
    02:00 +14°C° 0.4 mm 2 mps 596 mmHg 66%
    03:00 +14°C° 0.3 mm 2 mps 596 mmHg 67%
    04:00 +14°C° 0.3 mm 2 mps 596 mmHg 68%
    05:00 +13°C° 0 mm 2 mps 595 mmHg 67%
    06:00 +14°C° 0.1 mm 2 mps 596 mmHg 63%
    07:00 +14°C° 0.1 mm 2 mps 596 mmHg 59%
    08:00 +15°C° 0.1 mm 2 mps 597 mmHg 56%
    09:00 +16°C° 0.2 mm 1 mps 597 mmHg 51%
    10:00 +18°C° 0.2 mm 1 mps 597 mmHg 47%
    11:00 +19°C° 0 mm 1 mps 597 mmHg 42%
    12:00 +20°C° 0.1 mm 1 mps 598 mmHg 39%
    13:00 +20°C° 0.1 mm 1 mps 598 mmHg 36%
    14:00 +21°C° 0.1 mm 1 mps 598 mmHg 33%
    15:00 +20°C° 0.3 mm 2 mps 598 mmHg 34%
    16:00 +20°C° 0.3 mm 2 mps 598 mmHg 36%
    17:00 +20°C° 0 mm 2 mps 598 mmHg 36%
    18:00 +19°C° 0.1 mm 2 mps 598 mmHg 38%
    19:00 +19°C° 0.1 mm 2 mps 599 mmHg 40%
    20:00 +18°C° 0.1 mm 3 mps 599 mmHg 42%
    21:00 +18°C° 0 mm 2 mps 599 mmHg 44%
    22:00 +17°C° 0 mm 2 mps 599 mmHg 46%
    23:00 +16°C° 0 mm 2 mps 599 mmHg 48%

    Tomorrow, 25 May, Saturday

    Time Temperature Precipitation Wind Pressure Humidity
    00:00 +16°C° 0 mm 1 mps 598 mmHg 50%
    01:00 +15°C° 0 mm 1 mps 598 mmHg 51%
    02:00 +15°C° 0 mm 1 mps 598 mmHg 52%
    03:00 +14°C° 0 mm 1 mps 598 mmHg 54%
    04:00 +14°C° 0 mm 1 mps 598 mmHg 56%
    05:00 +14°C° 0 mm 1 mps 598 mmHg 58%
    06:00 +14°C° 0 mm 1 mps 598 mmHg 53%
    07:00 +15°C° 0 mm 1 mps 598 mmHg 48%
    08:00 +16°C° 0 mm 1 mps 599 mmHg 44%
    09:00 +18°C° 0 mm 1 mps 599 mmHg 38%
    10:00 +20°C° 0 mm 1 mps 599 mmHg 32%
    11:00 +20°C° 0 mm 2 mps 600 mmHg 27%
    12:00 +21°C° 0 mm 2 mps 600 mmHg 25%
    13:00 +23°C° 0 mm 2 mps 600 mmHg 23%
    14:00 +24°C° 0 mm 2 mps 600 mmHg 21%
    15:00 +24°C° 0 mm 2 mps 600 mmHg 21%
    16:00 +25°C° 0 mm 2 mps 599 mmHg 20%
    17:00 +25°C° 0 mm 2 mps 599 mmHg 19%
    18:00 +24°C° 0 mm 3 mps 599 mmHg 21%
    19:00 +22°C° 0 mm 4 mps 599 mmHg 23%
    20:00 +21°C° 0 mm 5 mps 599 mmHg 26%
    21:00 +20°C° 0 mm 4 mps 599 mmHg 27%
    22:00 +19°C° 0 mm 4 mps 599 mmHg 28%
    23:00 +18°C° 0 mm 3 mps 599 mmHg 30%

    Day after tomorrow, 26 May, Sunday

    Time Temperature Precipitation Wind Pressure Humidity
    00:00 +17°C° 0 mm 3 mps 598 mmHg 33%
    01:00 +17°C° 0 mm 2 mps 598 mmHg 36%
    02:00 +16°C° 0 mm 2 mps 598 mmHg 38%
    03:00 +15°C° 0 mm 2 mps 597 mmHg 41%
    04:00 +15°C° 0 mm 2 mps 597 mmHg 45%
    05:00 +14°C° 0 mm 1 mps 597 mmHg 48%
    06:00 +15°C° 0 mm 2 mps 598 mmHg 43%
    07:00 +15°C° 0 mm 2 mps 598 mmHg 39%
    08:00 +16°C° 0 mm 2 mps 598 mmHg 34%
    09:00 +17°C° 0 mm 2 mps 599 mmHg 29%
    10:00 +18°C° 0 mm 2 mps 599 mmHg 24%
    11:00 +19°C° 0 mm 2 mps 599 mmHg 20%
    12:00 +20°C° 0 mm 2 mps 599 mmHg 18%
    13:00 +21°C° 0 mm 2 mps 600 mmHg 16%
    14:00 +23°C° 0 mm 2 mps 600 mmHg 15%
    15:00 +23°C° 0 mm 2 mps 600 mmHg 14%
    16:00 +24°C° 0 mm 3 mps 600 mmHg 14%
    17:00 +24°C° 0 mm 3 mps 600 mmHg 14%
    18:00 +22°C° 0 mm 3 mps 600 mmHg 16%
    19:00 +21°C° 0 mm 3 mps 600 mmHg 18%
    20:00 +20°C° 0 mm 3 mps 600 mmHg 20%
    21:00 +19°C° 0 mm 2 mps 600 mmHg 22%
    22:00 +18°C° 0 mm 2 mps 600 mmHg 24%
    23:00 +18°C° 0 mm 1 mps 600 mmHg 26%

    27 May, Monday

    Time Temperature Precipitation Wind Pressure Humidity
    00:00 +18°C° 0 mm 1 mps 599 mmHg 28%
    01:00 +16°C° 0 mm 1 mps 599 mmHg 29%
    02:00 +15°C° 0 mm 1 mps 599 mmHg 31%
    03:00 +15°C° 0 mm 1 mps 598 mmHg 33%
    04:00 +14°C° 0 mm 1 mps 598 mmHg 34%
    05:00 +13°C° 0 mm 1 mps 597 mmHg 36%
    06:00 +15°C° 0 mm 1 mps 598 mmHg 32%
    07:00 +16°C° 0 mm 1 mps 599 mmHg 28%
    08:00 +18°C° 0 mm 1 mps 599 mmHg 24%
    09:00 +19°C° 0 mm 1 mps 599 mmHg 20%
    10:00 +21°C° 0 mm 1 mps 600 mmHg 16%
    11:00 +22°C° 0 mm 1 mps 600 mmHg 12%
    12:00 +24°C° 0 mm 1 mps 600 mmHg 11%
    13:00 +25°C° 0 mm 1 mps 601 mmHg 10%
    14:00 +26°C° 0 mm 1 mps 601 mmHg 9%
    15:00 +26°C° 0 mm 2 mps 600 mmHg 9%
    16:00 +26°C° 0 mm 2 mps 600 mmHg 10%
    17:00 +27°C° 0 mm 2 mps 600 mmHg 10%
    18:00 +26°C° 0 mm 2 mps 600 mmHg 12%
    19:00 +25°C° 0 mm 2 mps 600 mmHg 14%
    20:00 +23°C° 0 mm 2 mps 600 mmHg 16%
    21:00 +23°C° 0 mm 2 mps 600 mmHg 17%
    22:00 +21°C° 0 mm 2 mps 600 mmHg 18%
    23:00 +20°C° 0 mm 2 mps 600 mmHg 19%

    28 May, Tuesday

    Time Temperature Precipitation Wind Pressure Humidity
    00:00 +20°C° 0 mm 1 mps 599 mmHg 20%
    01:00 +19°C° 0 mm 1 mps 599 mmHg 21%
    02:00 +18°C° 0 mm 1 mps 598 mmHg 22%
    03:00 +18°C° 0 mm 1 mps 598 mmHg 23%
    04:00 +16°C° 0 mm 1 mps 598 mmHg 24%
    05:00 +16°C° 0 mm 1 mps 598 mmHg 25%
    06:00 +18°C° 0 mm 1 mps 598 mmHg 24%
    07:00 +19°C° 0 mm 1 mps 599 mmHg 22%
    08:00 +20°C° 0 mm 1 mps 600 mmHg 21%
    09:00 +22°C° 0 mm 1 mps 600 mmHg 18%
    10:00 +23°C° 0 mm 1 mps 600 mmHg 16%
    11:00 +24°C° 0 mm 1 mps 601 mmHg 13%
    12:00 +25°C° 0 mm 1 mps 601 mmHg 12%
    13:00 +26°C° 0 mm 1 mps 601 mmHg 11%
    14:00 +27°C° 0 mm 2 mps 601 mmHg 10%
    15:00 +27°C° 0 mm 2 mps 601 mmHg 10%
    16:00 +28°C° 0 mm 2 mps 601 mmHg 10%
    17:00 +28°C° 0 mm 3 mps 600 mmHg 10%
    18:00 +27°C° 0 mm 3 mps 600 mmHg 12%
    19:00 +26°C° 0 mm 3 mps 600 mmHg 14%
    20:00 +24°C° 0 mm 3 mps 600 mmHg 15%
    21:00 +24°C° 0 mm 2 mps 600 mmHg 17%
    22:00 +23°C° 0 mm 2 mps 600 mmHg 18%
    23:00 +21°C° 0 mm 2 mps 600 mmHg 19%

    29 May, Wednesday

    Time Temperature Precipitation Wind Pressure Humidity
    00:00 +20°C° 0 mm 2 mps 600 mmHg 20%
    01:00 +19°C° 0 mm 2 mps 599 mmHg 21%
    02:00 +20°C° 0 mm 1 mps 599 mmHg 22%
    03:00 +19°C° 0 mm 1 mps 598 mmHg 24%
    04:00 +18°C° 0 mm 1 mps 598 mmHg 25%
    05:00 +18°C° 0 mm 1 mps 598 mmHg 26%
    06:00 +19°C° 0 mm 1 mps 598 mmHg 23%
    07:00 +20°C° 0 mm 1 mps 599 mmHg 21%
    08:00 +21°C° 0 mm 1 mps 600 mmHg 18%
    09:00 +23°C° 0 mm 1 mps 600 mmHg 17%
    10:00 +24°C° 0 mm 1 mps 600 mmHg 15%
    11:00 +25°C° 0 mm 1 mps 600 mmHg 14%
    12:00 +26°C° 0 mm 1 mps 600 mmHg 13%
    13:00 +27°C° 0 mm 1 mps 600 mmHg 12%
    14:00 +28°C° 0 mm 1 mps 600 mmHg 11%
    15:00 +28°C° 0 mm 2 mps 600 mmHg 11%
    16:00 +29°C° 0 mm 2 mps 600 mmHg 11%
    17:00 +29°C° 0 mm 2 mps 600 mmHg 10%
    18:00 +28°C° 0 mm 3 mps 600 mmHg 12%
    19:00 +27°C° 0 mm 3 mps 600 mmHg 13%
    20:00 +26°C° 0 mm 3 mps 600 mmHg 15%
    21:00 +25°C° 0 mm 3 mps 600 mmHg 17%
    22:00 +24°C° 0 mm 2 mps 600 mmHg 19%
    23:00 +23°C° 0 mm 2 mps 600 mmHg 21%
    Show more